Вернуться в каталог

CZ-4C DEB

АктивенLEO
NORAD 39244·DEBRIS·🇨🇳 China

Запущен Sep 1, 2013 с Jiuquan Satellite Launch Center

Loading…

Ближайшие Пролёты (ближайшие 24 часа)

TLE

СвежийSource: Space-Track

Эпоха: Sep 14, 2026, 08:01 UTC

1 39244U 13046F   26257.33414559  .00000097  00000-0  17809-3 0  9996
2 39244  63.3849 244.0614 0439131  12.4985 348.6521 13.44859949639832

Отслеживайте CZ-4C DEB в реальном времени с AllMySat

Download on the App Store